M I D A S
Marine Information and Data Acquisition System
Tripno 1420 of the Zeeleeuw from 2008-01-30 07:56:28 to 2008-01-30 14:14:02
Back to CruiseResearch ActivitiesStationsMapUnderway DataData graphs

EquipmentUnitsComments
TimeDGPSUTC
LatitudeDGPSDM.mWGS84
LongitudeDGPSDM.mWGS84
SpeedMeteo Stationm/sRelative wind speed
DirectionMeteo StationdegRelative wind direction
TemperatureMeteo Stationdeg CelciusAir temperature
PressureMeteo StationPaAtmospheric pressure
HumidityMeteo Station%Relative humidity
Missing or incorrect values are displayed as -999
Metereological data collected by the RV Zeeleeuw from 2008-01-30 07:56:29 to 2008-01-30 14:25:45
Time Latitude Longitude Speed Direction Temperature Pressure Humidity
2008-01-30 07:57 51°13.662 2°55.953 -999 -999 -999 -999 -999
2008-01-30 07:58 51°13.665 2°55.916 -999 -999 -999 -999 -999
2008-01-30 07:59 51°13.687 2°55.813 -999 -999 -999 -999 -999
2008-01-30 08:00 51°13.704 2°55.729 -999 -999 -999 -999 -999
2008-01-30 08:01 51°13.695 2°55.728 -999 -999 -999 -999 -999
2008-01-30 08:02 51°13.701 2°55.755 -999 -999 -999 -999 -999
2008-01-30 08:03 51°13.704 2°55.757 -999 -999 -999 -999 -999
2008-01-30 08:04 51°13.774 2°55.686 -999 -999 -999 -999 -999
2008-01-30 08:05 51°13.861 2°55.613 -999 -999 -999 -999 -999
2008-01-30 08:06 51°13.978 2°55.527 -999 -999 -999 -999 -999
2008-01-30 08:07 51°14.102 2°55.434 -999 -999 -999 -999 -999
2008-01-30 08:08 51°14.22 2°55.316 -999 -999 -999 -999 -999
2008-01-30 08:09 51°14.33 2°55.104 -999 -999 -999 -999 -999
2008-01-30 08:10 51°14.418 2°54.847 -999 -999 -999 -999 -999
2008-01-30 08:11 51°14.523 2°54.596 -999 -999 -999 -999 -999
2008-01-30 08:12 51°14.691 2°54.457 -999 -999 -999 -999 -999
2008-01-30 08:13 51°14.859 2°54.32 -999 -999 -999 -999 -999
2008-01-30 08:14 51°15.026 2°54.185 -999 -999 -999 -999 -999
2008-01-30 08:15 51°15.196 2°54.044 -999 -999 -999 -999 -999
2008-01-30 08:16 51°15.359 2°53.904 -999 -999 -999 -999 -999
2008-01-30 08:17 51°15.525 2°53.762 -999 -999 -999 -999 -999
2008-01-30 08:18 51°15.694 2°53.619 -999 -999 -999 -999 -999
2008-01-30 08:19 51°15.86 2°53.483 -999 -999 -999 -999 -999
2008-01-30 08:20 51°16.024 2°53.349 -999 -999 -999 -999 -999
2008-01-30 08:21 51°16.195 2°53.21 -999 -999 -999 -999 -999
2008-01-30 08:22 51°16.364 2°53.075 -999 -999 -999 -999 -999
2008-01-30 08:23 51°16.533 2°52.939 -999 -999 -999 -999 -999
2008-01-30 08:24 51°16.707 2°52.819 -999 -999 -999 -999 -999
2008-01-30 08:25 51°16.885 2°52.71 -999 -999 -999 -999 -999
2008-01-30 08:26 51°17.071 2°52.624 -999 -999 -999 -999 -999
2008-01-30 08:27 51°17.259 2°52.559 -999 -999 -999 -999 -999
2008-01-30 08:28 51°17.445 2°52.524 -999 -999 -999 -999 -999
2008-01-30 08:29 51°17.636 2°52.507 -999 -999 -999 -999 -999
2008-01-30 08:30 51°17.816 2°52.534 -999 -999 -999 -999 -999
2008-01-30 08:31 51°17.997 2°52.593 -999 -999 -999 -999 -999
2008-01-30 08:32 51°18.154 2°52.76 -999 -999 -999 -999 -999
2008-01-30 08:33 51°18.269 2°53.013 -999 -999 -999 -999 -999
2008-01-30 08:34 51°18.378 2°53.275 -999 -999 -999 -999 -999
2008-01-30 08:35 51°18.478 2°53.545 -999 -999 -999 -999 -999
2008-01-30 08:36 51°18.569 2°53.823 -999 -999 -999 -999 -999
2008-01-30 08:37 51°18.66 2°54.098 -999 -999 -999 -999 -999
2008-01-30 08:38 51°18.748 2°54.378 -999 -999 -999 -999 -999
2008-01-30 08:39 51°18.836 2°54.654 -999 -999 -999 -999 -999
2008-01-30 08:40 51°18.928 2°54.929 -999 -999 -999 -999 -999
2008-01-30 08:41 51°19.019 2°55.204 -999 -999 -999 -999 -999
2008-01-30 08:42 51°19.102 2°55.484 -999 -999 -999 -999 -999
2008-01-30 08:43 51°19.175 2°55.769 -999 -999 -999 -999 -999
2008-01-30 08:44 51°19.241 2°56.061 -999 -999 -999 -999 -999
2008-01-30 08:45 51°19.305 2°56.352 -999 -999 -999 -999 -999
2008-01-30 08:46 51°19.368 2°56.645 -999 -999 -999 -999 -999
2008-01-30 08:47 51°19.433 2°56.934 -999 -999 -999 -999 -999
2008-01-30 08:48 51°19.497 2°57.225 -999 -999 -999 -999 -999
2008-01-30 08:49 51°19.563 2°57.512 -999 -999 -999 -999 -999
2008-01-30 08:50 51°19.627 2°57.801 -999 -999 -999 -999 -999
2008-01-30 08:51 51°19.693 2°58.09 -999 -999 -999 -999 -999
2008-01-30 08:52 51°19.756 2°58.377 -999 -999 -999 -999 -999
2008-01-30 08:53 51°19.817 2°58.664 -999 -999 -999 -999 -999
2008-01-30 08:54 51°19.873 2°58.95 -999 -999 -999 -999 -999
2008-01-30 08:55 51°19.932 2°59.234 -999 -999 -999 -999 -999
2008-01-30 08:56 51°19.986 2°59.52 -999 -999 -999 -999 -999
2008-01-30 08:57 51°20.035 2°59.808 -999 -999 -999 -999 -999
2008-01-30 08:58 51°20.085 3°0.092 -999 -999 -999 -999 -999
2008-01-30 08:59 51°20.13 3°0.38 -999 -999 -999 -999 -999
2008-01-30 09:00 51°20.175 3°0.665 -999 -999 -999 -999 -999
2008-01-30 09:01 51°20.231 3°0.946 -999 -999 -999 -999 -999
2008-01-30 09:02 51°20.286 3°1.227 -999 -999 -999 -999 -999
2008-01-30 09:03 51°20.34 3°1.506 -999 -999 -999 -999 -999
2008-01-30 09:04 51°20.395 3°1.784 -999 -999 -999 -999 -999
2008-01-30 09:05 51°20.449 3°2.066 -999 -999 -999 -999 -999
2008-01-30 09:06 51°20.503 3°2.347 -999 -999 -999 -999 -999
2008-01-30 09:07 51°20.554 3°2.629 -999 -999 -999 -999 -999
2008-01-30 09:08 51°20.599 3°2.912 -999 -999 -999 -999 -999
2008-01-30 09:09 51°20.642 3°3.197 -999 -999 -999 -999 -999
2008-01-30 09:10 51°20.677 3°3.486 -999 -999 -999 -999 -999
2008-01-30 09:11 51°20.722 3°3.776 -999 -999 -999 -999 -999
2008-01-30 09:12 51°20.755 3°4.078 -999 -999 -999 -999 -999
2008-01-30 09:13 51°20.787 3°4.38 -999 -999 -999 -999 -999
2008-01-30 09:14 51°20.821 3°4.681 -999 -999 -999 -999 -999
2008-01-30 09:15 51°20.865 3°4.978 -999 -999 -999 -999 -999
2008-01-30 09:16 51°20.904 3°5.276 -999 -999 -999 -999 -999
2008-01-30 09:17 51°20.941 3°5.575 -999 -999 -999 -999 -999
2008-01-30 09:18 51°20.987 3°5.872 -999 -999 -999 -999 -999
2008-01-30 09:19 51°21.036 3°6.164 -999 -999 -999 -999 -999
2008-01-30 09:20 51°21.093 3°6.45 -999 -999 -999 -999 -999
2008-01-30 09:21 51°21.152 3°6.735 -999 -999 -999 -999 -999
2008-01-30 09:22 51°21.212 3°7.019 -999 -999 -999 -999 -999
2008-01-30 09:23 51°21.269 3°7.301 -999 -999 -999 -999 -999
2008-01-30 09:24 51°21.325 3°7.585 -999 -999 -999 -999 -999
2008-01-30 09:25 51°21.381 3°7.869 -999 -999 -999 -999 -999
2008-01-30 09:26 51°21.44 3°8.152 -999 -999 -999 -999 -999
2008-01-30 09:27 51°21.498 3°8.434 -999 -999 -999 -999 -999
2008-01-30 09:28 51°21.552 3°8.716 -999 -999 -999 -999 -999
2008-01-30 09:29 51°21.605 3°8.941 -999 -999 -999 -999 -999
2008-01-30 09:30 51°21.644 3°9.028 -999 -999 -999 -999 -999
2008-01-30 09:31 51°21.697 3°8.939 -999 -999 -999 -999 -999
2008-01-30 09:32 51°21.664 3°8.834 -999 -999 -999 -999 -999
2008-01-30 09:33 51°21.63 3°8.775 -999 -999 -999 -999 -999
2008-01-30 09:34 51°21.598 3°8.721 -999 -999 -999 -999 -999
2008-01-30 09:35 51°21.563 3°8.648 -999 -999 -999 -999 -999
2008-01-30 09:36 51°21.529 3°8.561 -999 -999 -999 -999 -999
2008-01-30 09:37 51°21.5 3°8.455 -999 -999 -999 -999 -999
2008-01-30 09:38 51°21.478 3°8.365 -999 -999 -999 -999 -999
2008-01-30 09:39 51°21.456 3°8.277 -999 -999 -999 -999 -999
2008-01-30 09:40 51°21.433 3°8.192 -999 -999 -999 -999 -999
2008-01-30 09:41 51°21.408 3°8.108 -999 -999 -999 -999 -999
2008-01-30 09:42 51°21.382 3°8.024 -999 -999 -999 -999 -999
2008-01-30 09:43 51°21.357 3°7.942 -999 -999 -999 -999 -999
2008-01-30 09:44 51°21.334 3°7.859 -999 -999 -999 -999 -999
2008-01-30 09:45 51°21.311 3°7.77 -999 -999 -999 -999 -999
2008-01-30 09:46 51°21.287 3°7.684 -999 -999 -999 -999 -999
2008-01-30 09:47 51°21.263 3°7.6 -999 -999 -999 -999 -999
2008-01-30 09:48 51°21.237 3°7.517 -999 -999 -999 -999 -999
2008-01-30 09:49 51°21.21 3°7.436 -999 -999 -999 -999 -999
2008-01-30 09:50 51°21.185 3°7.354 -999 -999 -999 -999 -999
2008-01-30 09:51 51°21.16 3°7.274 -999 -999 -999 -999 -999
2008-01-30 09:52 51°21.138 3°7.19 -999 -999 -999 -999 -999
2008-01-30 09:53 51°21.117 3°7.104 -999 -999 -999 -999 -999
2008-01-30 09:54 51°21.096 3°7.018 -999 -999 -999 -999 -999
2008-01-30 09:55 51°21.075 3°6.933 -999 -999 -999 -999 -999
2008-01-30 09:56 51°21.056 3°6.846 -999 -999 -999 -999 -999
2008-01-30 09:57 51°21.04 3°6.756 -999 -999 -999 -999 -999
2008-01-30 09:58 51°21.025 3°6.669 -999 -999 -999 -999 -999
2008-01-30 09:59 51°21.012 3°6.577 -999 -999 -999 -999 -999
2008-01-30 10:00 51°21.001 3°6.487 -999 -999 -999 -999 -999
2008-01-30 10:01 51°20.986 3°6.4 -999 -999 -999 -999 -999
2008-01-30 10:02 51°20.974 3°6.313 -999 -999 -999 -999 -999
2008-01-30 10:03 51°20.96 3°6.227 -999 -999 -999 -999 -999
2008-01-30 10:04 51°20.949 3°6.135 -999 -999 -999 -999 -999
2008-01-30 10:05 51°20.938 3°6.046 -999 -999 -999 -999 -999
2008-01-30 10:06 51°20.925 3°5.959 -999 -999 -999 -999 -999
2008-01-30 10:07 51°20.911 3°5.871 -999 -999 -999 -999 -999
2008-01-30 10:08 51°20.895 3°5.786 -999 -999 -999 -999 -999
2008-01-30 10:09 51°20.878 3°5.706 -999 -999 -999 -999 -999
2008-01-30 10:10 51°20.863 3°5.625 -999 -999 -999 -999 -999
2008-01-30 10:11 51°20.854 3°5.542 -999 -999 -999 -999 -999
2008-01-30 10:12 51°20.863 3°5.478 -999 -999 -999 -999 -999
2008-01-30 10:13 51°20.875 3°5.436 -999 -999 -999 -999 -999
2008-01-30 10:14 51°20.877 3°5.409 -999 -999 -999 -999 -999
2008-01-30 10:15 51°20.87 3°5.388 -999 -999 -999 -999 -999
2008-01-30 10:16 51°20.857 3°5.364 -999 -999 -999 -999 -999
2008-01-30 10:17 51°20.841 3°5.339 -999 -999 -999 -999 -999
2008-01-30 10:18 51°20.836 3°5.321 -999 -999 -999 -999 -999
2008-01-30 10:19 51°20.863 3°5.268 -999 -999 -999 -999 -999
2008-01-30 10:20 51°20.857 3°5.105 -999 -999 -999 -999 -999
2008-01-30 10:21 51°20.849 3°4.786 -999 -999 -999 -999 -999
2008-01-30 10:22 51°20.825 3°4.427 -999 -999 -999 -999 -999
2008-01-30 10:23 51°20.793 3°4.069 -999 -999 -999 -999 -999
2008-01-30 10:24 51°20.756 3°3.71 -999 -999 -999 -999 -999
2008-01-30 10:25 51°20.713 3°3.352 -999 -999 -999 -999 -999
2008-01-30 10:26 51°20.667 3°2.995 -999 -999 -999 -999 -999
2008-01-30 10:27 51°20.614 3°2.637 -999 -999 -999 -999 -999
2008-01-30 10:28 51°20.566 3°2.283 12.8 350 6.8 -999 76
2008-01-30 10:29 51°20.515 3°1.932 14.1 348 6.9 102450 75
2008-01-30 10:30 51°20.454 3°1.586 15.4 355 7 102450 74
2008-01-30 10:31 51°20.374 3°1.248 13.7 349 7 102450 73
2008-01-30 10:32 51°20.299 3°0.902 13.8 351 7 102440 74
2008-01-30 10:33 51°20.227 3°0.552 15.5 351 7.1 102460 74
2008-01-30 10:34 51°20.152 3°0.204 14.4 350 7 102440 74
2008-01-30 10:35 51°20.077 2°59.855 14.7 351 7.1 102450 75
2008-01-30 10:36 51°20.002 2°59.505 16.5 350 7 102460 75
2008-01-30 10:37 51°19.923 2°59.156 15 353 7.1 102460 74
2008-01-30 10:38 51°19.838 2°58.81 14.2 351 7.1 102460 75
2008-01-30 10:39 51°19.751 2°58.463 15.6 353 7 102460 75
2008-01-30 10:40 51°19.664 2°58.111 15.9 354 7.1 102450 75
2008-01-30 10:41 51°19.578 2°57.765 16.1 355 7 102460 74
2008-01-30 10:42 51°19.493 2°57.426 14.6 358 7 102460 71
2008-01-30 10:43 51°19.406 2°57.08 15.9 356 7 102440 71
2008-01-30 10:44 51°19.318 2°56.734 14.6 358 7 102470 71
2008-01-30 10:45 51°19.232 2°56.386 14.6 359 7 102460 72
2008-01-30 10:46 51°19.146 2°56.034 14.1 356 7 102460 71
2008-01-30 10:47 51°19.064 2°55.694 16.4 356 7.1 102470 73
2008-01-30 10:48 51°18.978 2°55.349 15 354 7 102450 71
2008-01-30 10:49 51°18.897 2°55.017 13.4 355 7 102460 72
2008-01-30 10:50 51°18.813 2°54.673 16 358 7 102450 73
2008-01-30 10:51 51°18.73 2°54.336 15.5 358 7 102470 73
2008-01-30 10:52 51°18.649 2°54.003 14.8 356 7 102470 73
2008-01-30 10:53 51°18.567 2°53.673 13.8 355 7 102490 73
2008-01-30 10:54 51°18.473 2°53.343 14.7 356 7 102490 74
2008-01-30 10:55 51°18.386 2°53.057 9.8 4 7 102480 74
2008-01-30 10:56 51°18.336 2°52.896 9.6 6 7 102520 74
2008-01-30 10:57 51°18.267 2°52.697 13.9 1 7 102510 75
2008-01-30 10:58 51°18.17 2°52.403 13.2 358 7 102510 74
2008-01-30 10:59 51°18.073 2°52.086 12.4 355 7 102480 74
2008-01-30 11:00 51°17.974 2°51.771 12.4 358 7 102500 73
2008-01-30 11:01 51°17.867 2°51.464 13.7 357 7 102500 74
2008-01-30 11:02 51°17.759 2°51.151 13.9 2 7 102490 73
2008-01-30 11:03 51°17.654 2°50.85 12.3 1 7 102500 72
2008-01-30 11:04 51°17.549 2°50.541 14.3 -999 7 102490 72
2008-01-30 11:05 51°17.44 2°50.238 12.5 358 7 102490 72
2008-01-30 11:06 51°17.322 2°49.938 11.1 13 7 102500 72
2008-01-30 11:07 51°17.122 2°49.846 8.3 18 6.9 102550 71
2008-01-30 11:08 51°16.908 2°49.796 7.6 25 6.9 102560 71
2008-01-30 11:09 51°16.721 2°49.616 10.6 8 6.9 102540 71
2008-01-30 11:10 51°16.551 2°49.38 9.4 5 6.9 102530 71
2008-01-30 11:11 51°16.384 2°49.151 11.7 8 7 102540 72
2008-01-30 11:12 51°16.215 2°48.916 11.8 8 7 102530 73
2008-01-30 11:13 51°16.042 2°48.684 12.9 10 6.9 102540 73
2008-01-30 11:14 51°15.87 2°48.467 12.2 8 6.9 102520 74
2008-01-30 11:15 51°15.696 2°48.246 10.5 11 6.9 102530 72
2008-01-30 11:16 51°15.524 2°48.028 10.8 15 6.9 102550 72
2008-01-30 11:17 51°15.349 2°47.805 11.9 10 6.9 102560 71
2008-01-30 11:18 51°15.182 2°47.592 11.5 9 6.9 102540 71
2008-01-30 11:19 51°15.013 2°47.367 12.4 9 6.9 102550 72
2008-01-30 11:20 51°14.849 2°47.119 9.1 6 6.9 102550 72
2008-01-30 11:21 51°14.684 2°46.881 11.4 9 6.9 102550 72
2008-01-30 11:22 51°14.515 2°46.654 11.5 11 6.9 102540 72
2008-01-30 11:23 51°14.34 2°46.432 12.6 11 6.9 102540 72
2008-01-30 11:24 51°14.164 2°46.211 10.4 8 6.8 102560 70
2008-01-30 11:25 51°13.989 2°46.008 11.7 14 6.8 102570 70
2008-01-30 11:26 51°13.808 2°45.816 9.9 9 6.8 102550 70
2008-01-30 11:27 51°13.628 2°45.622 8.7 12 6.8 102560 69
2008-01-30 11:28 51°13.445 2°45.421 10.3 11 6.8 102560 69
2008-01-30 11:29 51°13.263 2°45.212 9 12 6.8 102560 67
2008-01-30 11:30 51°13.098 2°44.981 9.5 6 6.9 102550 68
2008-01-30 11:31 51°12.942 2°44.73 11.5 3 6.9 102540 69
2008-01-30 11:32 51°12.805 2°44.462 10.1 6 6.9 102530 70
2008-01-30 11:33 51°12.671 2°44.199 12.6 6 6.9 102540 71
2008-01-30 11:34 51°12.536 2°43.941 13.4 2 6.9 102550 71
2008-01-30 11:35 51°12.406 2°43.676 11.3 359 6.9 102540 72
2008-01-30 11:36 51°12.285 2°43.391 12 6 6.9 102530 71
2008-01-30 11:37 51°12.171 2°43.116 13 358 6.9 102530 73
2008-01-30 11:38 51°12.048 2°42.845 12.1 5 7 102530 74
2008-01-30 11:39 51°11.928 2°42.569 12 5 6.9 102550 72
2008-01-30 11:40 51°11.805 2°42.29 14.2 358 6.9 102550 71
2008-01-30 11:41 51°11.685 2°42.021 14.3 2 6.9 102540 70
2008-01-30 11:42 51°11.565 2°41.746 11.5 1 6.9 102560 71
2008-01-30 11:43 51°11.442 2°41.467 13 2 6.8 102560 70
2008-01-30 11:44 51°11.32 2°41.198 11.7 358 6.8 102550 71
2008-01-30 11:45 51°11.194 2°40.922 11.1 4 6.8 102550 72
2008-01-30 11:46 51°11.055 2°40.678 9.5 3 6.8 102580 72
2008-01-30 11:47 51°10.909 2°40.427 9.2 5 6.8 102560 72
2008-01-30 11:48 51°10.767 2°40.182 11.2 4 6.8 102570 73
2008-01-30 11:49 51°10.619 2°39.927 11.6 5 6.8 102550 72
2008-01-30 11:50 51°10.48 2°39.677 10.9 6 6.8 102550 70
2008-01-30 11:51 51°10.343 2°39.406 10.9 6 6.8 102560 70
2008-01-30 11:52 51°10.209 2°39.141 11.5 8 6.8 102570 71
2008-01-30 11:53 51°10.11 2°38.969 11.2 357 6.8 102580 71
2008-01-30 11:54 51°10.121 2°38.825 13.3 339 6.8 102570 69
2008-01-30 11:55 51°10.153 2°38.733 12.3 331 6.9 102600 71
2008-01-30 11:56 51°10.177 2°38.669 13.5 318 6.8 102590 69
2008-01-30 11:57 51°10.206 2°38.651 13.6 37 6.9 102590 70
2008-01-30 11:58 51°10.253 2°38.677 10.2 255 6.9 102570 70
2008-01-30 11:59 51°10.232 2°38.761 3.9 36 6.9 102600 69
2008-01-30 12:00 51°10.151 2°38.766 9 31 7.2 102620 71
2008-01-30 12:01 51°10.086 2°38.704 9.9 23 7.1 102610 71
2008-01-30 12:02 51°10.032 2°38.637 11 15 7 102610 72
2008-01-30 12:03 51°9.985 2°38.568 10.7 8 6.9 102610 71
2008-01-30 12:04 51°9.949 2°38.48 12.4 357 6.8 102580 71
2008-01-30 12:05 51°9.92 2°38.393 10.4 358 6.8 102580 71
2008-01-30 12:06 51°9.895 2°38.305 12.2 358 6.9 102590 72
2008-01-30 12:07 51°9.873 2°38.216 11.1 -999 6.8 102580 71
2008-01-30 12:08 51°9.85 2°38.129 13.1 359 6.8 102600 72
2008-01-30 12:09 51°9.829 2°38.041 10.5 359 6.8 102580 71
2008-01-30 12:10 51°9.807 2°37.953 10.4 360 6.7 102580 70
2008-01-30 12:11 51°9.789 2°37.867 9.5 355 6.7 102580 71
2008-01-30 12:12 51°9.77 2°37.784 9.8 356 6.7 102570 71
2008-01-30 12:13 51°9.753 2°37.699 12.1 355 6.7 102570 70
2008-01-30 12:14 51°9.734 2°37.619 12.4 358 6.7 102570 70
2008-01-30 12:15 51°9.714 2°37.535 10.7 353 6.7 102560 70
2008-01-30 12:16 51°9.695 2°37.451 10.4 359 6.7 102570 71
2008-01-30 12:17 51°9.678 2°37.367 11.1 355 6.7 102570 69
2008-01-30 12:18 51°9.66 2°37.281 12.2 357 6.7 102560 71
2008-01-30 12:19 51°9.642 2°37.194 11.2 356 6.7 102570 72
2008-01-30 12:20 51°9.624 2°37.106 12.5 356 6.6 102580 70
2008-01-30 12:21 51°9.604 2°37.022 12.1 357 6.6 102580 69
2008-01-30 12:22 51°9.586 2°36.937 12 356 6.6 102570 70
2008-01-30 12:23 51°9.566 2°36.852 10.6 354 6.7 102580 72
2008-01-30 12:24 51°9.546 2°36.768 9.5 356 6.6 102570 72
2008-01-30 12:25 51°9.53 2°36.679 10.3 354 6.6 102570 70
2008-01-30 12:26 51°9.513 2°36.597 10.1 349 6.6 102580 71
2008-01-30 12:27 51°9.497 2°36.517 11.6 356 6.6 102580 71
2008-01-30 12:28 51°9.477 2°36.44 11.5 356 6.6 102590 70
2008-01-30 12:29 51°9.457 2°36.363 12.5 357 6.6 102570 69
2008-01-30 12:30 51°9.44 2°36.28 10.4 356 6.5 102580 66
2008-01-30 12:31 51°9.421 2°36.203 9.4 359 6.5 102580 67
2008-01-30 12:32 51°9.4 2°36.122 11.4 358 6.6 102580 70
2008-01-30 12:33 51°9.383 2°36.039 12 355 6.6 102580 69
2008-01-30 12:34 51°9.367 2°35.955 9.2 353 6.6 102580 67
2008-01-30 12:35 51°9.356 2°35.885 10.9 343 6.5 102570 65
2008-01-30 12:36 51°9.355 2°35.834 11.4 335 6.6 102580 67
2008-01-30 12:37 51°9.341 2°35.806 9.6 346 6.6 102570 66
2008-01-30 12:38 51°9.318 2°35.794 9.5 356 6.6 102590 67
2008-01-30 12:39 51°9.297 2°35.789 10.5 7 6.6 102580 67
2008-01-30 12:40 51°9.277 2°35.782 9.9 15 6.6 102590 69
2008-01-30 12:41 51°9.252 2°35.706 10.4 343 6.5 102590 69
2008-01-30 12:42 51°9.279 2°35.633 11.9 38 6.6 102590 70
2008-01-30 12:43 51°9.3 2°35.698 7.8 264 6.6 102570 70
2008-01-30 12:44 51°9.287 2°35.744 9 264 6.7 102590 71
2008-01-30 12:45 51°9.276 2°35.766 6.3 265 6.7 102580 70
2008-01-30 12:46 51°9.275 2°35.81 10.1 251 6.7 102590 70
2008-01-30 12:47 51°9.333 2°35.947 12.3 240 6.7 102560 71
2008-01-30 12:48 51°9.411 2°36.183 14.1 244 6.7 102570 71
2008-01-30 12:49 51°9.496 2°36.446 9.6 242 6.6 102570 70
2008-01-30 12:50 51°9.583 2°36.702 13.3 246 6.7 102570 70
2008-01-30 12:51 51°9.664 2°36.944 10.5 245 6.7 102560 70
2008-01-30 12:52 51°9.749 2°37.17 12.7 245 6.6 102550 69
2008-01-30 12:53 51°9.834 2°37.399 10.3 240 6.7 102580 70
2008-01-30 12:54 51°9.918 2°37.634 9.4 240 6.7 102560 70
2008-01-30 12:55 51°9.996 2°37.87 12.9 250 6.7 102560 70
2008-01-30 12:56 51°10.078 2°38.105 13.8 245 6.7 102560 69
2008-01-30 12:57 51°10.157 2°38.342 9.9 249 6.7 102550 69
2008-01-30 12:58 51°10.236 2°38.575 12.2 243 6.8 102560 70
2008-01-30 12:59 51°10.315 2°38.81 12.7 249 6.7 102560 68
2008-01-30 13:00 51°10.396 2°39.043 14 248 6.7 102570 67
2008-01-30 13:01 51°10.478 2°39.28 13.1 244 6.7 102550 68
2008-01-30 13:02 51°10.558 2°39.517 10.2 242 6.7 102550 68
2008-01-30 13:03 51°10.638 2°39.755 13.3 245 6.7 102560 67
2008-01-30 13:04 51°10.72 2°39.993 11.5 242 6.7 102560 67
2008-01-30 13:05 51°10.801 2°40.23 14.1 249 6.7 102560 68
2008-01-30 13:06 51°10.884 2°40.468 11 244 6.7 102550 68
2008-01-30 13:07 51°10.967 2°40.707 11.2 242 6.7 102560 67
2008-01-30 13:08 51°11.05 2°40.947 10.7 246 6.8 102570 69
2008-01-30 13:09 51°11.134 2°41.187 11.6 249 6.8 102560 68
2008-01-30 13:10 51°11.217 2°41.425 8.9 248 6.8 102580 68
2008-01-30 13:11 51°11.299 2°41.663 11.3 241 6.8 102570 68
2008-01-30 13:12 51°11.383 2°41.9 10.5 30 6.9 102560 69
2008-01-30 13:13 51°11.469 2°42.138 11.7 245 6.9 102540 69
2008-01-30 13:14 51°11.553 2°42.378 9.7 245 6.9 102560 69
2008-01-30 13:15 51°11.601 2°42.641 10.5 250 6.9 102560 69
2008-01-30 13:16 51°11.618 2°42.921 10.8 256 6.9 102570 69
2008-01-30 13:17 51°11.633 2°43.203 7.1 251 6.9 102570 68
2008-01-30 13:18 51°11.649 2°43.486 9 250 6.9 102560 68
2008-01-30 13:19 51°11.668 2°43.767 7 248 6.9 102570 68
2008-01-30 13:20 51°11.688 2°44.049 10.1 247 6.9 102570 68
2008-01-30 13:21 51°11.708 2°44.305 7.2 255 6.8 102560 68
2008-01-30 13:22 51°11.72 2°44.523 8.7 256 6.8 102560 68
2008-01-30 13:23 51°11.734 2°44.733 9.3 254 6.8 102560 68
2008-01-30 13:24 51°11.752 2°44.943 11.4 255 6.8 102580 68
2008-01-30 13:25 51°11.773 2°45.15 11.5 253 6.8 102570 67
2008-01-30 13:26 51°11.796 2°45.357 9.2 254 6.9 102560 67
2008-01-30 13:27 51°11.816 2°45.563 10.1 252 6.8 102570 67
2008-01-30 13:28 51°11.838 2°45.769 8.2 251 6.9 102570 68
2008-01-30 13:29 51°11.858 2°45.974 11.7 250 6.8 102560 69
2008-01-30 13:30 51°11.878 2°46.179 10.5 253 6.8 102570 67
2008-01-30 13:31 51°11.903 2°46.382 10.2 249 6.8 102570 68
2008-01-30 13:32 51°11.939 2°46.579 6.8 249 6.9 102560 67
2008-01-30 13:33 51°11.975 2°46.774 9.4 251 6.7 102560 67
2008-01-30 13:34 51°12.03 2°46.953 9.5 241 6.7 102560 67
2008-01-30 13:35 51°12.086 2°47.134 8.2 248 6.7 102560 68
2008-01-30 13:36 51°12.142 2°47.317 10.6 240 6.8 102560 69
2008-01-30 13:37 51°12.197 2°47.5 9.3 247 6.8 102560 67
2008-01-30 13:38 51°12.251 2°47.685 8.9 248 6.8 102550 67
2008-01-30 13:39 51°12.305 2°47.87 6.6 248 6.8 102560 67
2008-01-30 13:40 51°12.359 2°48.056 11 244 6.8 102560 66
2008-01-30 13:41 51°12.411 2°48.24 11.3 250 6.8 102560 67
2008-01-30 13:42 51°12.464 2°48.423 7.6 252 6.8 102550 67
2008-01-30 13:43 51°12.516 2°48.605 11.1 249 6.8 102550 67
2008-01-30 13:44 51°12.57 2°48.789 10 249 6.8 102570 67
2008-01-30 13:45 51°12.623 2°48.975 7.5 246 6.8 102570 68
2008-01-30 13:46 51°12.677 2°49.159 8.2 241 6.8 102570 67
2008-01-30 13:47 51°12.731 2°49.344 8.4 244 6.8 102550 67
2008-01-30 13:48 51°12.787 2°49.527 8.5 247 6.8 102560 67
2008-01-30 13:49 51°12.849 2°49.705 7.4 246 6.9 102550 68
2008-01-30 13:50 51°12.913 2°49.882 8.4 243 6.9 102550 69
2008-01-30 13:51 51°12.973 2°50.06 9.9 244 6.9 102550 68
2008-01-30 13:52 51°13.035 2°50.237 7.6 242 6.9 102560 67
2008-01-30 13:53 51°13.096 2°50.415 7.8 244 6.9 102560 67
2008-01-30 13:54 51°13.159 2°50.596 7.8 243 6.9 102570 67
2008-01-30 13:55 51°13.22 2°50.777 11.8 241 6.9 102550 68
2008-01-30 13:56 51°13.283 2°50.957 8.6 245 6.8 102570 68
2008-01-30 13:57 51°13.344 2°51.138 9.1 241 6.8 102550 68
2008-01-30 13:58 51°13.405 2°51.319 9.3 245 6.8 102560 68
2008-01-30 13:59 51°13.466 2°51.5 11 244 6.7 102560 68
2008-01-30 14:00 51°13.529 2°51.683 8.6 245 6.7 102570 68
2008-01-30 14:01 51°13.593 2°51.865 7.2 251 6.8 102560 68
2008-01-30 14:02 51°13.655 2°52.049 8.2 246 6.8 102560 67
2008-01-30 14:03 51°13.718 2°52.234 10.1 249 6.8 102570 67
2008-01-30 14:04 51°13.78 2°52.42 9.4 243 6.9 102570 69
2008-01-30 14:05 51°13.844 2°52.613 8.1 241 6.9 102580 68
2008-01-30 14:06 51°13.925 2°52.844 8.7 242 6.8 102570 68
2008-01-30 14:07 51°14.017 2°53.105 7.7 241 6.9 102580 69
2008-01-30 14:08 51°14.107 2°53.362 9 34 6.9 102570 69
2008-01-30 14:09 51°14.204 2°53.632 10.8 236 6.9 102570 69
2008-01-30 14:10 51°14.292 2°53.914 10.7 242 6.9 102560 69
2008-01-30 14:11 51°14.373 2°54.202 10.3 242 6.8 102560 68
2008-01-30 14:12 51°14.422 2°54.511 4.6 243 6.8 102580 67
2008-01-30 14:13 51°14.396 2°54.831 2.7 252 6.8 102590 67
2008-01-30 14:14 51°14.328 2°55.14 1.4 42 6.8 102590 67
2008-01-30 14:15 51°14.202 2°55.343 3.9 38 6.8 102600 68
2008-01-30 14:16 51°14.1 2°55.426 5 39 6.8 102600 67
2008-01-30 14:17 51°14.01 2°55.497 3.9 31 6.7 102600 66
2008-01-30 14:18 51°13.912 2°55.57 4.7 38 6.6 102610 66
2008-01-30 14:19 51°13.818 2°55.639 3.8 37 6.7 102600 67
2008-01-30 14:20 51°13.755 2°55.709 5 34 6.8 102600 66
2008-01-30 14:21 51°13.708 2°55.787 4.2 31 6.7 102610 67
2008-01-30 14:22 51°13.68 2°55.879 4 266 6.6 102610 68
2008-01-30 14:23 51°13.67 2°55.938 7.5 37 6.7 102610 68
2008-01-30 14:24 51°13.665 2°55.951 4.2 36 6.7 102610 68
2008-01-30 14:25 51°13.664 2°55.953 3.5 32 6.8 102610 67